Timeline UpdatesTrip UpdatesNews PostsPvt PostsTravel TipsAdmin PostsConv PostsFollowed PostsChat RequestsBlog PostsPNR Posts

Disclaimer
Search
 
 
Sun Apr 20, 2014 09:09:41 ISTHomeTrainsΣChainsAtlasPNRForumGalleryNewsFAQTripsMembersLoginFeedback
No Recent News for this Train
Other Trains in the News **new
Latest...
This train has been rescheduled to leave Howrah at 22:00 hrs on 29.12.2013 due to fog effect.
Sun Dec 29, 2013 (05:33PM)
⇐ Return Journey: Train# 13006

13005/Howrah - Amritsar (Punjab) Mail

Oct 13 2013 (9:26PM)
Change Departure Station:
Change Arrival Station:
Post a Train Travel TipPost a Train Travel Tip **new
Post a Comment/Question/Picture/VideoPost a Comment/Question/Picture/Video
Pantry/Catering
✓ Pantry Car Avbl
✓ Catering Avbl
Tea: Rs 7; Samosa: Rs 15/pair.
RSA - Rake Sharing
No RSA.
Rake/Coach Composition
LOCO-SLR-GS-GS-S1-S2-S3-S4-S5-S6-S7-S8-S9-S10-PC-B1-B2-B3-A1-HA1-GS-MILITARY-SLR(Ladies)
Loco
HWH/MGS WAP-4 (HWH-MGS) SGUJ WDP-4B (MGS-LKO) GZB WAP-4/5 (LKO-ASR)
News    PNR    Forum    Time-Table    Availability    Fare Chart    Map    Arr/Dep History    Trips    Gallery    ΣChains    X/O    Timeline    
Travel Time: 12h 57m    20 halts    Distance: 743 km    Avg Speed: 57 km/hr
Type: Mail/Express
Zone: ER/Eastern
Departs @ 19:10 (Avg 3m late)
Platform# 8
SMTWTFS
Kolkata Howrah Junction/HWH 
Arrives @ 08:07 +1 night (Avg 6m late)
Platform# 2
SMTWTFS
Mughal Sarai Junction/MGS 

20 halts. 173 intermediate Stations between Kolkata Howrah Junction and Mughal Sarai Junction

Show ALL intermediate Stations  Show Old Time-Table

#CodeStation NameX/OArrivesAvgDepartsAvgHaltPFDay#KmSpeedElevZoneAddress
1HWH»Kolkata Howrah Junction (23)»  -19:10+3810.08610mERHowrah 711101, West Bengal
2BWNBarddhaman Junction (8)X  20:16+1720:21+165m2194.47634mERDist - Barddhaman, West Bengal
3DGRDurgapur (5)XO  21:11+2121:14+213m31157.99171mERDurgapur, West Bengal
4RNGRaniGanj (4)  21:30+2721:31+281m--1182.26092mERRaniganj, West Bengal
5ASNAsansol Junction (7)  21:49+3021:54+305m31200.465113mERDist - bardhaman, West Bengal
6CRJChittaranjan (3)X  22:17+3822:19+382m31225.587182mERMihijam, Jharkhand
7MDPMadhupur Junction (4)X  22:58+4623:02+454m11281.973254mER06432-224478, Jharkhand
8JSMEJasidih Junction (5)X  23:26+4223:30+424m--1310.935271mERJasidih, Jharkhand
9JAJJhajha (4)  00:45+1500:50+175m--2355.086143mECRJhajha, Bihar
10KIULKiul Junction (5)  01:27+2401:32+225m--2408.35753mECRDist. Lakhisarai, Bihar
11MKAMokama Junction (3)  02:08+2702:12+254m--2442.57448mECRPatna, Bihar
12BKPBakhtiyarpur Junction (5)X  02:48+2402:50+252m--2486.76651mECRPatna, Bihar
13PNCPatna Saheb (3)X  03:22+3003:24+332m--2521.91359mECRPatna, Bihar
14PNBEPatna Junction (10)  04:10+1004:20+1310m62531.83857mECRPatna 800001, Bihar
15DNRDanapur (5)X  04:35+1704:37+182m--2541.28258mECRKhagaul, Bihar
16ARAAra Junction (3)X  05:06+2305:11+215m12580.810163mECRarrah( 06182-233411), Bihar
17DUREDumraon (3)  05:42+2905:43+301m22632.96170mECRDumraon, Bihar
18BXRBuxar (3)X  05:59+3106:03+294m22649.26767mECRBuxar, Bihar
19GMRGahmar (2)  06:21+3106:22+321m--2669.46968mECRDistt: Ghazipur, Uttar Pradesh
20DLNDildarnagar Junction (2)  06:36+3206:38+322m22685.48172mECRDildarnagar, Uttar Pradesh
21ZNAZamaniaX  06:48+3306:49+341m12698.93477mECRGhazipur, Uttar Pradesh
22MGS•Mughal Sarai Junction (8)•X  08:07+608:27+920m22743.22483mECRMughalsarai 232101, Uttar Pradesh
23KEIKashi (3)X  08:55+1208:56+151m12754.12085mNRVaranasi, Uttar Pradesh
24BSBVaranasi Junction (9)  09:12+1309:27+1315m82759.57282mNRVaranasi, Uttar Pradesh
25BOYBhadohi (2)X  10:04+2710:05+281m--2803.96590mNRUttar Pradesh 221401, Uttar Pradesh
26JNHJanghai Junction (3)X  10:33+3210:34+341m--2834.45992mNRUttar Pradesh 212401, Uttar Pradesh
27BSEBadshahpur (2)  10:51+3310:52+351m--2851.26693mNRMungra Badshahpur, Uttar Pradesh
28PBHPratapgarh Junction (3)  11:25+3911:30+425m22887.57297mNRPratapgarh, Uttar Pradesh
29AMEAmethi (2)  11:59+5112:00+521m--2922.653107mNRAmethi., Uttar Pradesh
30GNGGauriGanj (2)  12:15+5312:16+551m--2935.860110mNRSH 34, Uttar Pradesh
31JAISJais (2)  12:34+5812:36+1:002m--2953.951108mNRRae Bareli, Uttar Pradesh
32RBLRae Bareli Junction (4)  13:10+5513:15+555m--2982.761116mNRRaebareli, Uttar Pradesh
33BCNBachhrawan (2)  13:45+5313:47+532m--21013.330124mNRLucknow, Uttar Pradesh
34LKOLucknow Charbagh (9)X  15:20+2615:45+2125m421060.563123mNRCharbagh, Uttar Pradesh
35BLMBalamu Junction (4)  16:51+3916:53+392m--21129.473139mNRBalamau, Uttar Pradesh
36HRIHardoi (5)X  17:20+4117:23+423m121162.463146mNRHardoi, Uttar Pradesh
37ROZARoza Junction (4)  18:16+3118:18+332m--21218.037156mNRShahjahanpur, Uttar Pradesh
38SPNShahjahanpur Junction (3)X  18:30+3218:35+325m--21225.374156mNRShahjahanpur, Uttar Pradesh
39BEBareilly Junction (4)  19:32+4119:37+435m221295.895174mNRBareilly, Uttar Pradesh
40RMURampur Junction (3)  20:17+1:0120:18+1:031m--21358.829190mNRRampur, Uttar Pradesh
41MBMoradabad Junction (7)X  21:15+4621:25+4710m221386.165201mNRMoradabad, Uttar Pradesh
42DPRDhampur  22:20+5122:22+512m--21445.856236mNRDhampur, Uttar Pradesh
43NGGNagina (3)X  22:40+5322:42+542m--21462.536247mNRNagina, Uttar Pradesh
44NBDNajibabad Junction (3)  23:20+3823:25+395m221485.068269mNRNajibabad, Uttar Pradesh
45LRJLaksar Junction (4)  00:02+4000:07+405m231526.976238mNRLaksar, Uttarakhand
46RKRoorkee (3)  00:21+4400:26+435m331544.743264mNRRoorkee - 247667, Uttarakhand
47SRESaharanpur Junction (6)X  01:15+4301:25+4610m--31579.462276mNRSaharanpur, Uttar Pradesh
48JUDYamunanagar-Jagadhri (3)X  01:54+5501:55+561m331609.651275mNRYamunanagar, Haryana
49UMBAmbala Cantt. Junction (7)X  02:55+4803:15+4220m231660.656278mNRAmbala 133001, Haryana
50RPJRajpura Junction (3)X  03:45+4603:47+462m131688.748272mNRNH-1, Punjab
51LDHLudhiana Junction (7)X  05:35+2905:45+5410m331774.233246mNRLudhiana 141001, Punjab
52PHRPhillaur Junction (3)  06:09+4706:11+472m231787.375246mNRPhillaur, Punjab
53PGWPhagwara Junction (3)X  06:29+4806:31+482m231809.970245mNRPhagwara, Punjab
54JRCJalandhar Cantt. Junction (3)X  06:45+4806:47+482m131826.297239mNRNear Rama Mandi, Punjab
55JUCJalandhar City Junction (5)  06:50+5407:00+5210m131831.049239mNRJalandhar 144001, Punjab
56BEASBeas Junction (2)X  07:44+4007:46+412m131867.137238mNRBeas, Punjab
57ASRAmritsar Junction (5)  08:55+24-331910.1-233mNRAmritsar 143002, Punjab
Scroll to Top
Scroll to Bottom